Retour au catalogue

FENGYUN 2C

ActifMétéoGEO
NORAD 28451·PAYLOAD·🇨🇳 China

Lancé Oct 19, 2004 depuis Xichang Satellite Launch Center

Loading…

TLE

FraisSource: Space-Track

Époque: Sep 14, 2026, 07:30 UTC

1 28451U 04042A   26257.31277781 -.00000120  00000-0  00000-0 0  9992
2 28451  12.5771  30.4896 0002768 355.3202 195.2303  0.98083028 42049

Suivez FENGYUN 2C en temps réel avec AllMySat

Download on the App Store